This demonstration page uses our WeatherBlox Daily Observations layout. Learn more.

Left ArrowRight Arrow

Hourly Observations for November 4, 2016

Temp ( °F °C ) Dew Point ( °F °C ) Humidity (%) Winds ( mph kmh ) Pressure ( in mb ) Visibility ( mi km ) Precip ( " mm )
12:59 am 00:59 Cloudy with Light Rain 66 18.9 63 17.2 90 90 NNW 12 19 29.98 1015 3 5 0.23 5.84
1:59 am 01:59 Cloudy with Light Rain 65 18.3 63 17.2 93 93 N 7 11 29.97 1015 4 6 0.17 4.32
2:33 am 02:33 Cloudy with Light Rain 65 18.3 62 16.7 90 90 N 10 17 29.97 1015 5 8 0.01 0.25
2:59 am 02:59 Cloudy with Rain 62 16.7 60 15.6 93 93 N 20 31 29.99 1016 4 6 0.03 0.76
3:40 am 03:40 Cloudy with Rain 61 16.1 59 15 93 93 NNE 20 31 30.00 1016 3 5 0.11 2.79
3:59 am 03:59 Cloudy with Light Rain 59 15 57 13.9 93 93 NNE 21 33 30.01 1016 5 8 0.13 3.30
4:59 am 04:59 Cloudy 58 14.4 52 11.1 81 81 NE 16 26 30.04 1017 10 16 0.02 0.51
5:59 am 05:59 Cloudy 59 15 52 11.1 78 78 NNE 16 26 30.06 1018 10 16 0.00 0.00
6:59 am 06:59 Mostly Cloudy 60 15.6 50 10 70 70 NNE 17 28 30.08 1019 10 16 0.00 0.00
7:59 am 07:59 Mostly Cloudy 61 16.1 49 9.4 65 65 NNE 20 31 30.10 1019 10 16 0.00 0.00
8:59 am 08:59 Partly Cloudy 62 16.7 48 8.9 60 60 NNE 21 33 30.14 1021 10 16 0.00 0.00
9:59 am 09:59 Partly Cloudy 62 16.7 48 8.9 60 60 NNE 20 31 30.16 1021 10 16 0.00 0.00
10:59 am 10:59 Partly Cloudy 64 17.8 48 8.9 56 56 N 15 24 30.18 1022 10 16 0.00 0.00
11:59 am 11:59 Partly Cloudy 64 17.8 49 9.4 58 58 NNE 18 30 30.18 1022 10 16 0.00 0.00
12:59 pm 12:59 Partly Cloudy 64 17.8 48 8.9 56 56 N 20 31 30.16 1021 10 16 0.00 0.00
1:59 pm 13:59 Mostly Sunny 64 17.8 47 8.3 54 54 N 21 33 30.16 1022 10 16 0.00 0.00
2:59 pm 14:59 Partly Cloudy 63 17.2 46 7.8 54 54 N 20 31 30.18 1022 10 16 0.00 0.00
3:59 pm 15:59 Mostly Sunny 62 16.7 45 7.2 54 54 NNE 15 24 30.19 1022 10 16 0.00 0.00
4:59 pm 16:59 Mostly Sunny 61 16.1 44 6.7 54 54 NNE 14 22 30.20 1023 10 16 0.00 0.00
5:59 pm 17:59 Mostly Sunny 59 15 44 6.7 58 58 NNE 15 24 30.22 1023 10 16 0.00 0.00
6:59 pm 18:59 Mostly Clear 59 15 42 5.6 54 54 N 17 28 30.23 1024 10 16 0.00 0.00
7:59 pm 19:59 Clear 59 15 42 5.6 54 54 NNE 15 24 30.24 1024 10 16 0.00 0.00
8:59 pm 20:59 Mostly Clear 58 14.4 41 5 53 53 N 14 22 30.24 1024 10 16 0.00 0.00
9:59 pm 21:59 Mostly Clear 58 14.4 41 5 53 53 NNE 12 19 30.25 1025 10 16 0.00 0.00
10:59 pm 22:59 Clear 58 14.4 41 5 53 53 NNE 13 20 30.26 1025 10 16 0.00 0.00
11:59 pm 23:59 Clear 58 14.4 39 3.9 50 50 NNE 17 28 30.26 1025 10 16 0.00 0.00

Powered by AerisWeather